Flag for U.S.A. Weather past 2 weeks in Carson City, Nevada, U.S.A.

Now
66 °F

Passing clouds.


Feels Like: 66 °F
Forecast: 57 / 78 °F
Wind: No wind

Location: Reno Tahoe International Airport

Current Time: Jul 7, 2015 at 2:44:55 AM

Latest Report: Jul 7, 2015 at 1:55 AM


Visibility: 10 mi

Pressure: 29.95 "Hg (25.35 "Hg at 1425m altitude)

Humidity: 63%

Dew point: 53 °F

Location of Carson CityLocation

Historic Weather in Carson City — Graph

°F

Carson City temperature yesterday

Maximum temperature yesterday: 92 °F (at 2:55 PM)
Minimum temperature yesterday: 65 °F (at 4:55 AM)
Average temperature yesterday: 75 °F

Past Weeks' High & Low Weather Summary

 TemperatureHumidityPressure
High101 °F (Jul 2, 3:55 PM)70% (Jul 5, 12:55 AM)30.02 "Hg (Jul 5, 12:55 AM)
Low52 °F (Jun 22, 5:55 AM)6% (Jun 22, 11:55 AM)29.77 "Hg (Jul 2, 4:55 PM)
Average80 °F32%29.91 "Hg
* Reported Jun 22 12:55 AM — Jul 7 12:55 AM, Carson City, Weather by CustomWeather, © 2015

Note: Actual official high and low records may vary slightly from our data, if they occured in-between our weather recording intervals... More about our weather records

Advertising

Carson City weather history for previous 24 hours

 ConditionsComfort  
Time TempWeatherWind HumidityBarometerVisibility
12:55 AM
Tue, Jul 7
68 °FPassing clouds.3 mph51%29.96 "Hg10 mi
11:55 PM
Mon, Jul 6
70 °FPassing clouds.7 mph47%29.97 "Hg10 mi
10:55 PM70 °FPassing clouds.No wind51%29.96 "Hg10 mi
9:55 PM70 °FPassing clouds.8 mph59%29.98 "Hg10 mi
8:55 PM72 °FBroken clouds.3 mph48%29.98 "Hg10 mi
7:55 PM72 °FBroken clouds.10 mph52%29.99 "Hg10 mi
6:55 PM76 °FThunderstorms. Partly sunny.7 mph40%30.02 "Hg10 mi
5:55 PM75 °FPartly sunny.8 mph45%29.98 "Hg10 mi
4:55 PM80 °FThunderstorms. Partly sunny.13 mph41%29.92 "Hg10 mi
3:55 PM88 °FPartly sunny.14 mph22%29.89 "Hg10 mi
2:55 PM92 °FScattered clouds.8 mph18%29.88 "Hg10 mi
1:55 PM89 °FScattered clouds.8 mph21%29.92 "Hg10 mi
12:55 PM88 °FScattered clouds.5 mph23%29.93 "Hg10 mi
11:55 AM87 °FPassing clouds.5 mph24%29.95 "Hg10 mi
10:55 AM83 °FPassing clouds.No wind26%29.97 "Hg10 mi
9:55 AM78 °FPassing clouds.No wind35%29.99 "Hg10 mi
8:55 AM73 °FPassing clouds.3 mph44%30.01 "Hg10 mi
7:55 AM70 °FPassing clouds.3 mph51%30.01 "Hg10 mi
6:55 AM67 °FPassing clouds.7 mph53%30.00 "Hg10 mi
5:55 AM65 °FPassing clouds.3 mph59%29.98 "Hg10 mi
4:55 AM65 °FPassing clouds.5 mph59%29.97 "Hg10 mi
3:55 AM67 °FPassing clouds.No wind55%29.96 "Hg10 mi
2:55 AM69 °FPassing clouds.3 mph53%29.96 "Hg10 mi
Weather by CustomWeather, © 2015

See weather overviewHow to use our weather pages